Beach, ND

11:56 AM MDT on July 28, 2017 (GMT -0600)
Beach

Weather History for K20U - May, 2013

Change the Weather History Date:

Wednesday, May 8, 2013

  Actual Average (KGDV) Record (KGDV)
Temperature  
Mean Temperature 52 °F -  
Max Temperature 68 °F 59 °F 86 °F (2004)
Min Temperature 35 °F 36 °F 28 °F (2002)
Degree Days  
Heating Degree Days 14    
Growing Degree Days 2 (Base 50)    
Moisture  
Dew Point 36 °F    
Average Humidity 56    
Maximum Humidity 87    
Minimum Humidity 35    
Precipitation  
Precipitation 0.00 in - - ()
Sea Level Pressure  
Sea Level Pressure 30.06 in    
Wind  
Wind Speed 7 mph (NE)    
Max Wind Speed 18 mph    
Max Gust Speed 23 mph    
Visibility 10 miles    
Events      
Averages and records for this station are not official NWS values.
T = Trace of Precipitation, MM = Missing Value Source: NWS Daily Summary

Daily Weather History Graph

Daily Weather History Graph

Search for Another Location

Airport or City:

Trip Planner

Search our weather history database for the weather conditions in past years. The results will help you decide how hot, cold, wet, or windy it might be!

Date:

Astronomy

May. 08, 2013 Rise Set
Actual Time 5:29 AM MDT 8:16 PM MDT
Civil Twilight 4:54 AM MDT 8:51 PM MDT
Nautical Twilight 4:10 AM MDT 9:35 PM MDT
Astronomical Twilight 3:18 AM MDT 10:28 PM MDT
Moon 4:44 AM MDT (5/8) 7:13 PM MDT (5/8)
Length of Visible Light 15h 56m
Length of Day
14h 46m
Waning Crescent, 2% of the Moon is Illuminated
May 8
Waning Crescent
May 9
New
May 17
First Quarter
May 24
Full
May 31
Last Quarter

Hourly Weather History & Observations

Time (MDT) Temp. Windchill Dew Point Humidity Pressure Visibility Wind Dir Wind Speed Gust Speed Precip Events Conditions
12:15 AM 44.6 °F 42.2 °F 30.2 °F 57% 29.92 in 10.0 mi NNE 4.6 mph - N/A   Clear
12:35 AM 44.6 °F - 28.4 °F 53% 29.93 in 10.0 mi Calm Calm - N/A   Clear
12:55 AM 41.0 °F - 32.0 °F 70% 29.93 in 10.0 mi Calm Calm - N/A   Clear
1:15 AM 39.2 °F - 32.0 °F 75% 29.93 in 10.0 mi Calm Calm - N/A   Clear
1:35 AM 41.0 °F 39.0 °F 33.8 °F 76% 29.93 in 10.0 mi South 3.5 mph - N/A   Partly Cloudy
1:55 AM 39.2 °F 35.9 °F 28.4 °F 65% 29.93 in 10.0 mi South 4.6 mph - N/A   Clear
2:15 AM 39.2 °F - 30.2 °F 70% 29.93 in 10.0 mi Calm Calm - N/A   Clear
2:35 AM 39.2 °F - 30.2 °F 70% 29.93 in 10.0 mi Calm Calm - N/A   Partly Cloudy
2:55 AM 39.2 °F 34.2 °F 30.2 °F 70% 29.94 in 10.0 mi NNW 6.9 mph - N/A   Partly Cloudy
3:15 AM 39.2 °F 35.0 °F 32.0 °F 75% 29.95 in 10.0 mi NW 5.8 mph - N/A   Scattered Clouds
3:35 AM 41.0 °F 35.8 °F 32.0 °F 70% 29.96 in 10.0 mi NW 8.1 mph - N/A   Scattered Clouds
3:55 AM 39.2 °F 33.6 °F 32.0 °F 75% 29.96 in 10.0 mi NNW 8.1 mph - N/A   Mostly Cloudy
4:15 AM 39.2 °F 35.0 °F 32.0 °F 75% 29.97 in 10.0 mi NNW 5.8 mph - N/A   Overcast
4:35 AM 37.4 °F 32.1 °F 32.0 °F 81% 29.97 in 10.0 mi NW 6.9 mph - N/A   Mostly Cloudy
4:55 AM 37.4 °F 32.1 °F 32.0 °F 81% 29.98 in 10.0 mi NNW 6.9 mph - N/A   Scattered Clouds
5:15 AM 35.6 °F - 30.2 °F 81% 29.99 in 10.0 mi Calm Calm - N/A   Clear
5:35 AM 37.4 °F 32.8 °F 32.0 °F 81% 29.99 in 10.0 mi NW 5.8 mph - N/A   Clear
5:55 AM 37.4 °F 31.4 °F 33.8 °F 87% 30.00 in 10.0 mi NW 8.1 mph - N/A   Clear
6:15 AM 39.2 °F 34.2 °F 35.6 °F 87% 30.01 in 10.0 mi NNW 6.9 mph - N/A   Clear
6:35 AM 41.0 °F 37.1 °F 37.4 °F 87% 30.02 in 10.0 mi North 5.8 mph - N/A   Clear
6:55 AM 44.6 °F 39.7 °F 39.2 °F 81% 30.03 in 10.0 mi North 9.2 mph - N/A   Clear
7:15 AM 46.4 °F 41.9 °F 41.0 °F 81% 30.04 in 10.0 mi North 9.2 mph - N/A   Partly Cloudy
7:35 AM 48.2 °F - 41.0 °F 76% 30.05 in 10.0 mi North 12.7 mph - N/A   Partly Cloudy
7:55 AM 50.0 °F - 41.0 °F 71% 30.05 in 10.0 mi NNE 10.4 mph - N/A   Scattered Clouds
8:15 AM 51.8 °F - 39.2 °F 62% 30.06 in 10.0 mi NE 9.2 mph - N/A   Partly Cloudy
8:35 AM 53.6 °F - 39.2 °F 58% 30.06 in 10.0 mi ENE 9.2 mph - N/A   Clear
8:55 AM 55.4 °F - 39.2 °F 54% 30.07 in 10.0 mi ENE 9.2 mph - N/A   Clear
9:15 AM 55.4 °F - 39.2 °F 54% 30.08 in 10.0 mi NE 10.4 mph - N/A   Clear
9:35 AM 57.2 °F - 39.2 °F 51% 30.08 in 10.0 mi ENE 9.2 mph - N/A   Clear
9:55 AM 59.0 °F - 39.2 °F 48% 30.08 in 10.0 mi NE 11.5 mph 16.1 mph N/A   Clear
10:15 AM 59.0 °F - 39.2 °F 48% 30.08 in 10.0 mi ENE 8.1 mph 16.1 mph N/A   Clear
10:35 AM 60.8 °F - 41.0 °F 48% 30.09 in 10.0 mi NE 11.5 mph - N/A   Clear
10:55 AM 62.6 °F - 41.0 °F 45% 30.09 in 10.0 mi NNE 11.5 mph 17.3 mph N/A   Clear
11:15 AM 62.6 °F - 41.0 °F 45% 30.10 in 10.0 mi NE 12.7 mph 17.3 mph N/A   Clear
11:35 AM 64.4 °F - 41.0 °F 42% 30.10 in 10.0 mi ENE 9.2 mph 17.3 mph N/A   Clear
11:55 AM 64.4 °F - 41.0 °F 42% 30.10 in 10.0 mi East 12.7 mph 19.6 mph N/A   Clear
12:15 PM 64.4 °F - 41.0 °F 42% 30.10 in 10.0 mi NE 13.8 mph 20.7 mph N/A   Clear
12:35 PM 64.4 °F - 41.0 °F 42% 30.10 in 10.0 mi ENE 10.4 mph 16.1 mph N/A   Clear
12:55 PM 66.2 °F - 41.0 °F 40% 30.10 in 10.0 mi East 12.7 mph 21.9 mph N/A   Partly Cloudy
1:15 PM 66.2 °F - 41.0 °F 40% 30.10 in 10.0 mi East 10.4 mph 19.6 mph N/A   Mostly Cloudy
1:35 PM 66.2 °F - 41.0 °F 40% 30.10 in 10.0 mi ENE 10.4 mph 16.1 mph N/A   Mostly Cloudy
1:55 PM 66.2 °F - 41.0 °F 40% 30.10 in 10.0 mi NE 13.8 mph - N/A   Partly Cloudy
2:35 PM 66.2 °F - 39.2 °F 37% 30.10 in 10.0 mi ENE 12.7 mph 18.4 mph N/A   Mostly Cloudy
2:55 PM 68.0 °F - 39.2 °F 35% 30.11 in 10.0 mi ENE 13.8 mph 17.3 mph N/A   Mostly Cloudy
3:15 PM 66.2 °F - 39.2 °F 37% 30.11 in 10.0 mi ENE 10.4 mph 18.4 mph N/A   Partly Cloudy
3:35 PM 66.2 °F - 39.2 °F 37% 30.11 in 10.0 mi ENE 11.5 mph 17.3 mph N/A   Scattered Clouds
3:55 PM 68.0 °F - 39.2 °F 35% 30.11 in 10.0 mi ENE 15.0 mph 21.9 mph N/A   Clear
4:15 PM 66.2 °F - 39.2 °F 37% 30.11 in 10.0 mi ENE 15.0 mph 19.6 mph N/A   Partly Cloudy
4:35 PM 66.2 °F - 39.2 °F 37% 30.11 in 10.0 mi ENE 18.4 mph - N/A   Scattered Clouds
4:55 PM 64.4 °F - 37.4 °F 37% 30.12 in 10.0 mi ENE 15.0 mph 19.6 mph N/A   Mostly Cloudy
5:15 PM 64.4 °F - 37.4 °F 37% 30.12 in 10.0 mi East 13.8 mph - N/A   Overcast
5:35 PM 62.6 °F - 37.4 °F 39% 30.12 in 10.0 mi East 13.8 mph - N/A   Overcast
5:55 PM 64.4 °F - 37.4 °F 37% 30.12 in 10.0 mi East 15.0 mph - N/A   Scattered Clouds
6:15 PM 62.6 °F - 37.4 °F 39% 30.11 in 10.0 mi East 13.8 mph - N/A   Mostly Cloudy
6:35 PM 62.6 °F - 37.4 °F 39% 30.11 in 10.0 mi East 16.1 mph 20.7 mph N/A   Mostly Cloudy
6:55 PM 60.8 °F - 37.4 °F 42% 30.11 in 10.0 mi East 18.4 mph 21.9 mph N/A   Mostly Cloudy
7:15 PM 60.8 °F - 35.6 °F 39% 30.11 in 10.0 mi East 17.3 mph 23.0 mph N/A   Overcast
7:35 PM 59.0 °F - 35.6 °F 42% 30.12 in 10.0 mi East 16.1 mph 21.9 mph N/A   Mostly Cloudy
7:55 PM 57.2 °F - 35.6 °F 44% 30.13 in 10.0 mi ENE 10.4 mph - N/A   Mostly Cloudy
8:15 PM 53.6 °F - 35.6 °F 51% 30.14 in 10.0 mi ENE 9.2 mph - N/A   Partly Cloudy
8:35 PM 51.8 °F - 35.6 °F 54% 30.15 in 10.0 mi ENE 9.2 mph - N/A   Clear
9:15 PM 50.0 °F - 33.8 °F 54% 30.16 in 10.0 mi ENE 10.4 mph - N/A   Partly Cloudy
9:35 PM 48.2 °F - 32.0 °F 54% 30.16 in 10.0 mi ENE 6.9 mph - N/A   Scattered Clouds
10:35 PM 46.4 °F 41.9 °F 32.0 °F 57% 30.17 in 10.0 mi NE 9.2 mph - N/A   Scattered Clouds
10:55 PM 46.4 °F 41.9 °F 32.0 °F 57% 30.18 in 10.0 mi ENE 9.2 mph - N/A   Scattered Clouds
11:55 PM 46.4 °F 42.4 °F 32.0 °F 57% 30.19 in 10.0 mi East 8.1 mph - N/A   Overcast